Wind_Speed
26 21 23 24 21 18 21 29 28 29 33 30 29 33 32 30 27 26 25 23 23 24 25 26 27 28 28 27 26 24 23 25 26 24 23 22 23 21 19 19 19 17 15
31 29 32 31 27 26 31 32 27 31 44 39 36 39 35 32 27 24 24 23 25 27 29 29 28 27 27 26 23 23 23 24 26 25 26 26 25 21 20 19 19 17 14
40 36 37 41 37 36 42 41 34 44 51 47 42 42 36 28 25 26 27 26 27 30 30 28 28 27 25 24 21 21 22 25 25 25 24 24 25 22 20 19 18 15 14
42 45 46 47 47 47 46 44 41 43 47 42 38 35 31 24 27 30 29 28 28 30 30 28 28 29 27 25 24 22 22 23 24 24 24 22 23 22 18 19 18 13 12
42 43 42 42 46 48 45 41 43 48 51 48 38 37 35 31 30 31 30 29 29 30 31 30 30 32 29 28 26 23 21 21 23 24 24 22 21 22 18 17 15 14 12
36 35 34 33 35 35 39 39 47 47 50 52 44 39 38 35 32 32 32 32 33 35 34 34 34 35 32 30 26 22 22 21 21 23 24 24 23 22 17 14 16 15 13
32 30 33 34 38 39 41 43 44 34 32 31 30 33 34 35 35 35 36 36 37 38 38 37 36 37 37 35 28 22 23 22 21 22 24 24 24 21 16 15 14 11 10
42 41 39 36 38 37 25 25 25 28 29 32 32 34 36 39 39 39 39 39 39 39 39 38 37 37 39 39 35 27 25 24 23 23 24 24 23 19 16 17 16 13 13
40 42 39 38 40 42 38 33 25 21 22 29 33 35 37 39 39 39 39 39 39 38 36 36 36 36 38 37 32 27 26 24 25 25 25 23 22 19 15 18 16 14 14
35 41 40 30 22 25 26 28 21 20 23 27 29 30 31 33 34 35 35 34 34 34 32 33 35 35 35 34 31 27 26 26 26 26 27 24 23 20 13 13 12 10 12
41 41 35 34 20 17 19 24 27 30 29 29 30 31 30 31 31 31 32 33 34 34 33 33 34 32 31 31 31 31 28 27 27 28 28 28 25 23 20 18 15 14 15
26 19 13 17 21 23 23 26 28 30 30 30 30 33 33 33 32 31 32 33 33 33 31 32 31 30 29 28 29 29 28 28 27 28 29 30 29 26 24 22 18 14 14
22 25 28 29 28 28 26 25 28 29 31 32 32 34 37 36 34 34 34 31 29 28 29 25 27 29 28 27 26 25 25 26 25 26 27 30 31 28 26 24 18 13 11
32 30 32 33 33 31 30 30 29 27 29 31 31 32 34 34 32 31 30 30 27 26 27 25 25 24 22 21 22 22 21 21 25 26 23 23 24 24 23 21 19 16 14
39 37 33 33 35 34 33 33 35 33 31 31 31 32 31 31 31 31 31 32 30 25 23 25 25 23 25 25 22 21 22 26 28 25 25 23 22 22 21 20 19 18 17
41 41 40 39 38 39 39 37 35 34 32 31 33 31 30 29 28 29 31 33 32 27 23 22 19 16 18 19 19 22 24 28 28 25 25 25 24 24 23 21 21 21 21
40 41 41 39 38 38 38 39 38 35 33 31 34 36 33 29 26 26 29 31 30 26 24 25 20 17 20 21 21 21 21 21 22 24 23 23 22 22 22 22 22 22 24
35 37 37 37 36 36 36 38 38 37 36 34 33 35 34 32 30 29 31 33 33 29 27 26 25 23 24 25 25 26 24 22 21 21 21 21 21 21 22 23 24 24 24
29 31 33 33 32 33 34 35 35 33 33 33 32 34 33 33 34 34 32 36 40 36 30 31 31 28 26 27 28 29 29 28 25 23 23 22 22 23 22 23 26 29 29
26 27 26 28 27 26 27 28 28 26 25 27 27 28 33 31 28 28 31 38 43 42 39 38 37 32 30 31 32 31 30 29 27 26 25 26 27 26 25 26 28 30 31
27 27 23 20 18 18 18 17 19 21 22 22 22 21 22 24 22 22 28 34 35 34 35 38 38 33 31 32 35 35 34 32 30 30 30 31 31 30 30 30 29 29 30
24 23 19 16 13 13 14 16 15 17 17 17 21 24 25 22 20 22 30 37 38 38 36 33 32 31 31 31 35 39 40 38 36 34 34 35 34 34 34 32 31 29 28
17 15 12 13 16 19 19 17 15 14 14 13 16 21 26 22 21 23 25 26 26 26 28 28 29 32 32 34 38 40 42 39 38 38 38 38 37 36 35 34 33 31 30
13 12 11 12 16 16 17 19 22 20 15 18 18 21 26 28 29 29 25 23 21 21 21 22 25 28 30 32 35 39 40 39 38 37 39 40 39 37 34 33 33 33 32
14 14 13 14 17 19 21 26 25 24 26 26 28 32 31 31 31 30 29 25 24 26 25 25 24 22 26 28 29 33 36 39 40 39 38 39 39 37 35 35 35 36 36
16 16 17 19 20 21 23 26 29 30 33 35 37 37 35 35 31 32 33 33 31 27 27 32 33 30 30 35 35 37 39 39 40 39 38 40 42 43 43 42 41 40 39
Wind_Direction
276 271 265 268 270 253 235 246 263 281 278 271 278 282 281 279 276 275 278 280 277 277 281 283 285 290 290 292 295 297 298 297 296 295 291 288 290 294 296 299 299 301 297
275 273 263 262 265 255 247 252 261 270 268 258 266 273 274 273 273 273 271 268 269 273 278 281 279 281 284 286 289 293 292 291 293 293 290 288 291 293 298 299 298 297 295
269 271 265 262 261 259 263 261 260 279 269 263 266 265 261 265 274 273 268 264 266 270 276 279 279 278 279 280 282 285 288 288 290 290 286 286 288 292 296 300 299 293 285
269 269 266 262 259 256 258 257 262 266 258 247 252 263 265 271 272 268 266 265 269 274 278 277 273 272 276 280 284 287 282 281 284 285 283 283 286 291 294 297 298 292 277
271 269 267 266 261 258 254 250 254 253 254 255 262 259 268 274 268 262 259 262 267 272 274 273 271 272 277 282 282 278 277 280 281 283 283 283 284 287 289 295 291 287 275
264 264 265 263 259 253 242 238 242 237 239 247 243 249 262 266 264 261 263 267 272 276 275 274 273 273 276 278 281 275 275 276 279 283 282 282 280 284 290 291 291 286 270
249 248 252 257 253 239 227 220 228 232 236 240 239 251 259 259 258 260 265 270 273 274 274 273 273 273 274 278 280 271 268 271 278 284 284 281 279 283 281 284 287 282 272
247 250 255 258 254 256 249 229 247 259 263 258 252 257 262 263 264 266 268 269 269 269 270 271 271 272 273 275 276 268 260 266 275 284 287 283 280 283 280 279 279 275 278
259 248 246 261 270 283 291 285 300 304 274 264 262 264 265 266 265 265 266 266 267 268 270 272 273 273 272 272 271 262 255 259 269 280 284 280 274 274 274 270 274 277 273
275 271 272 275 281 280 279 272 268 267 271 268 264 264 265 266 267 267 267 268 269 271 273 275 274 274 273 270 263 256 254 254 260 270 276 273 269 266 257 258 271 283 282
281 282 278 271 277 275 268 261 257 261 262 264 266 268 269 269 269 269 271 273 273 271 274 274 275 273 272 267 260 253 254 252 253 261 268 267 265 259 252 260 268 271 275
258 252 262 285 285 282 275 269 265 265 264 262 265 268 267 268 270 272 274 277 275 270 270 272 273 269 267 268 263 257 256 257 258 258 261 262 260 260 257 260 259 263 265
248 259 273 284 285 282 278 273 270 267 263 261 261 266 266 268 272 272 271 273 273 268 270 267 271 267 263 264 261 256 257 258 258 261 261 258 254 256 257 256 252 250 248
277 273 268 275 279 277 273 270 270 270 264 261 261 263 266 267 269 270 266 265 266 273 269 263 271 258 249 257 258 252 250 253 258 260 253 251 249 253 255 253 248 246 247
283 278 276 276 275 274 273 271 270 268 264 259 260 261 263 263 263 261 259 260 264 270 268 258 265 254 248 255 261 259 254 253 254 246 246 250 251 258 258 252 250 250 246
276 276 280 279 273 269 269 269 268 266 265 262 258 260 261 262 263 258 256 259 258 257 259 256 254 249 249 250 252 252 254 252 245 246 253 254 252 251 250 247 248 250 248
273 273 277 278 275 271 269 266 264 265 265 264 259 255 257 258 261 258 253 253 251 250 245 246 243 245 252 252 248 245 244 244 246 247 245 246 248 247 243 244 247 251 252
276 275 274 274 272 270 267 265 262 260 260 258 257 254 252 253 248 249 247 247 245 242 244 246 246 242 244 246 245 247 245 242 243 247 247 244 243 245 245 247 251 252 251
287 286 282 277 271 266 263 261 259 257 255 254 253 252 251 249 250 249 243 241 240 238 239 244 242 239 245 242 241 247 250 250 249 253 257 255 252 251 251 252 254 253 249
291 295 290 279 268 261 258 256 254 252 247 246 247 247 247 247 255 254 246 240 236 233 228 236 236 238 246 244 242 243 246 250 252 254 258 258 255 255 258 257 253 250 250
285 295 292 284 266 254 248 254 248 242 240 238 236 234 237 241 246 242 233 228 225 231 233 235 235 238 243 248 250 248 245 247 252 254 253 254 255 254 255 255 255 251 247
293 297 288 264 254 259 247 252 253 244 238 235 233 230 232 240 244 246 246 247 251 253 253 251 249 246 247 250 251 250 248 247 250 251 252 252 251 252 252 253 253 251 250
301 297 285 253 249 242 242 244 245 241 252 261 254 250 247 253 272 284 281 271 268 266 260 256 252 249 248 248 248 248 248 248 251 251 251 252 251 249 249 252 251 248 247
299 293 279 255 242 249 245 229 232 238 244 253 250 247 255 269 277 281 273 265 262 259 258 258 255 255 255 253 250 249 250 251 251 251 252 252 252 251 251 252 253 249 247
294 292 284 267 257 257 250 251 264 259 242 250 258 253 256 265 265 250 254 259 264 265 259 247 240 250 257 255 254 254 253 254 256 255 255 254 253 252 251 250 250 250 250
292 293 289 284 278 271 263 260 263 260 254 257 257 262 265 264 258 255 259 262 264 263 250 244 246 247 251 258 258 259 259 257 259 259 258 258 257 256 254 253 252 252 253
Height
5873 5877 5878 5878 5880 5884 5887 5888 5891 5893 5892 5888 5885 5884 5885 5884 5883 5882 5883 5884 5883 5883 5884 5884 5883 5880 5877 5876 5875 5874 5873 5870 5868 5867 5867 5865 5863 5863 5862 5860 5858 5856 5855
5865 5870 5872 5871 5874 5877 5878 5882 5886 5888 5885 5880 5876 5875 5877 5876 5875 5876 5877 5877 5877 5877 5877 5876 5876 5874 5872 5872 5871 5869 5867 5865 5864 5863 5862 5861 5859 5859 5858 5856 5854 5852 5851
5857 5859 5861 5863 5865 5868 5866 5866 5871 5875 5871 5870 5868 5866 5866 5868 5869 5869 5868 5869 5870 5871 5871 5871 5869 5867 5865 5866 5867 5866 5863 5860 5859 5858 5857 5856 5854 5853 5853 5851 5850 5848 5847
5846 5846 5849 5851 5854 5854 5852 5853 5857 5858 5857 5861 5858 5858 5857 5859 5862 5862 5863 5864 5863 5863 5864 5863 5862 5860 5859 5860 5861 5861 5858 5856 5853 5852 5851 5852 5849 5849 5848 5847 5846 5843 5842
5835 5833 5835 5838 5839 5839 5840 5842 5841 5841 5843 5847 5848 5850 5852 5853 5856 5856 5857 5857 5857 5856 5856 5855 5855 5853 5854 5854 5854 5855 5854 5852 5849 5847 5846 5846 5844 5843 5843 5842 5842 5840 5837
5825 5824 5825 5827 5828 5829 5829 5830 5828 5825 5826 5833 5839 5842 5844 5845 5848 5849 5848 5848 5848 5848 5847 5847 5847 5846 5846 5847 5847 5847 5847 5846 5844 5843 5841 5841 5840 5838 5838 5838 5838 5836 5833
5819 5818 5815 5817 5820 5821 5817 5822 5821 5818 5819 5825 5830 5834 5835 5838 5840 5840 5840 5839 5840 5839 5838 5838 5839 5839 5838 5839 5840 5840 5840 5840 5840 5839 5837 5836 5835 5834 5833 5835 5834 5832 5829
5810 5811 5809 5807 5807 5809 5812 5816 5820 5817 5817 5819 5822 5826 5829 5829 5828 5829 5830 5830 5830 5830 5830 5830 5831 5831 5831 5830 5831 5832 5833 5834 5835 5834 5833 5831 5830 5829 5829 5830 5829 5828 5827
5801 5805 5805 5802 5801 5801 5802 5808 5808 5809 5809 5810 5812 5814 5817 5819 5820 5819 5820 5820 5820 5821 5822 5822 5822 5821 5821 5821 5823 5825 5826 5828 5829 5828 5828 5827 5826 5825 5826 5825 5824 5824 5824
5793 5795 5795 5794 5797 5799 5797 5798 5800 5802 5803 5804 5806 5807 5809 5811 5811 5811 5812 5811 5811 5811 5811 5813 5813 5813 5813 5813 5815 5817 5819 5821 5822 5822 5822 5823 5823 5822 5822 5821 5820 5819 5820
5790 5786 5784 5785 5790 5793 5793 5795 5796 5796 5796 5798 5799 5800 5801 5802 5803 5803 5803 5804 5804 5803 5802 5802 5803 5804 5804 5804 5806 5808 5811 5814 5815 5815 5816 5817 5819 5819 5818 5817 5815 5815 5816
5789 5787 5784 5784 5785 5787 5788 5789 5789 5788 5787 5789 5791 5793 5794 5795 5795 5795 5795 5795 5796 5795 5794 5793 5794 5795 5796 5796 5797 5799 5802 5805 5807 5808 5809 5811 5812 5813 5813 5813 5812 5812 5812
5783 5782 5780 5779 5778 5779 5780 5781 5781 5782 5782 5782 5783 5784 5785 5786 5787 5787 5787 5788 5788 5788 5787 5785 5786 5787 5788 5789 5790 5792 5794 5796 5798 5801 5803 5804 5806 5807 5808 5808 5808 5808 5808
5773 5774 5775 5773 5771 5772 5772 5773 5773 5774 5775 5774 5773 5775 5775 5776 5777 5777 5778 5780 5781 5781 5779 5779 5779 5779 5781 5782 5783 5785 5786 5788 5791 5793 5796 5798 5798 5800 5802 5801 5803 5804 5804
5760 5762 5763 5764 5764 5763 5764 5764 5764 5765 5765 5765 5765 5765 5766 5766 5767 5768 5770 5772 5773 5773 5772 5772 5773 5773 5774 5775 5776 5778 5780 5782 5784 5787 5790 5791 5792 5794 5795 5796 5797 5799 5800
5750 5750 5751 5753 5753 5754 5754 5753 5753 5754 5754 5754 5756 5757 5757 5758 5758 5759 5760 5763 5764 5764 5764 5765 5766 5766 5767 5769 5770 5772 5774 5776 5778 5780 5782 5784 5785 5787 5789 5790 5791 5794 5795
5741 5740 5738 5738 5738 5739 5739 5740 5741 5742 5743 5744 5746 5748 5748 5749 5750 5750 5752 5753 5755 5756 5757 5759 5759 5759 5762 5763 5764 5766 5768 5770 5772 5774 5774 5776 5778 5781 5782 5783 5784 5786 5788
5729 5728 5727 5726 5726 5725 5726 5727 5728 5730 5732 5733 5735 5737 5739 5740 5741 5742 5743 5745 5747 5748 5749 5749 5752 5752 5754 5756 5758 5760 5761 5763 5765 5767 5769 5769 5770 5772 5775 5776 5777 5779 5780
5718 5717 5715 5714 5714 5715 5716 5717 5718 5720 5721 5722 5724 5725 5728 5730 5732 5734 5735 5737 5738 5738 5739 5740 5743 5745 5748 5750 5752 5753 5755 5756 5758 5761 5762 5762 5764 5766 5767 5769 5770 5772 5774
5710 5709 5707 5704 5705 5706 5707 5708 5710 5712 5714 5715 5716 5717 5718 5720 5723 5724 5726 5729 5729 5729 5729 5731 5734 5736 5739 5741 5743 5745 5747 5748 5750 5751 5752 5754 5755 5757 5758 5759 5762 5764 5766
5704 5701 5700 5699 5699 5700 5701 5702 5703 5705 5707 5708 5708 5710 5710 5712 5715 5717 5719 5721 5721 5723 5724 5724 5725 5726 5728 5731 5734 5736 5738 5739 5741 5741 5742 5744 5745 5747 5748 5750 5751 5753 5755
5697 5695 5694 5695 5696 5696 5697 5698 5698 5700 5701 5702 5703 5704 5705 5705 5707 5708 5710 5711 5711 5712 5714 5714 5716 5717 5718 5719 5722 5726 5729 5729 5730 5731 5731 5733 5735 5737 5739 5740 5742 5744 5745
5692 5691 5690 5690 5692 5693 5693 5694 5695 5695 5696 5697 5697 5698 5698 5698 5699 5699 5700 5699 5700 5702 5703 5704 5706 5706 5706 5707 5709 5712 5715 5717 5719 5720 5721 5722 5725 5727 5729 5730 5732 5734 5736
5687 5687 5687 5687 5688 5689 5689 5689 5691 5692 5692 5692 5693 5694 5694 5694 5693 5693 5692 5692 5693 5695 5697 5696 5697 5697 5698 5698 5700 5701 5703 5705 5708 5710 5712 5713 5715 5718 5719 5721 5723 5725 5727
5683 5683 5682 5682 5683 5683 5684 5685 5684 5687 5686 5686 5686 5687 5687 5687 5686 5687 5687 5686 5686 5687 5689 5689 5690 5692 5692 5693 5693 5693 5694 5695 5698 5699 5702 5704 5705 5707 5707 5709 5711 5713 5715
5679 5678 5677 5676 5676 5676 5676 5676 5676 5677 5679 5677 5677 5678 5678 5679 5679 5679 5679 5679 5679 5678 5679 5680 5680 5681 5682 5682 5684 5684 5684 5685 5687 5689 5690 5692 5693 5693 5694 5696 5699 5702 5704